Location: *
(46.1006°N, 1.8394°E)
Time: 20:56:39
(UTC+00:00)

HJ-1C - Pass Details

Date: 20 September 2019
Orbit: 435 x 449 km, 97.2° (Epoch: 13 October)

Event Time Altitude Azimuth Distance (km) Brightness Sun altitude
Rises 18:36:28 0° 155° (SSE) 2,434 6.8 -8.0°
Reaches altitude 10° 18:38:30 10° 150° (SSE) 1,570 5.8 -8.3°
Maximum altitude 18:41:46 50° 74° (ENE) 580 3.6 -8.9°
Drops below altitude 10° 18:45:05 10° 358° (N) 1,589 6.4 -9.4°
Sets 18:47:09 0° 353° (N) 2,467 7.4 -9.8°
